Location: Casilda
(33.0440°S, 61.1680°W)
Time: 09:10:57
(UTC-03:00)

ISS - Pass Details

Date: 12 August 2022
Orbit: 412 x 420 km, 51.6° (Epoch: 13 August)

Event Time Altitude Azimuth Distance (km) Brightness Sun altitude
Exits shadow 06:34:29 16° 320° (NW) 1,208 -1.7 -15.3°
Drops below altitude 10° 06:36:04 10° 348° (NNW) 1,500 -1.0 -15.0°
Sets 06:38:41 0° 10° (N) 2,353 0.3 -14.5°
